Highgate, VT

4:53 AM EST on November 22, 2019 (GMT -0500)
Franklin County State

Weather History for KFSO - September, 2019

Change the Weather History Date:

Thursday, September 26, 2019

  Actual Average (WUND) Record (WUND)
Temperature  
Mean Temperature 62 °F -  
Max Temperature 69 °F - - (-1)
Min Temperature 55 °F - - (-1)
Degree Days  
Heating Degree Days 3    
Growing Degree Days 12 (Base 50)    
Moisture  
Dew Point 57 °F    
Average Humidity 79    
Maximum Humidity 96    
Minimum Humidity 60    
Precipitation  
Precipitation 0.00 in - - ()
Sea Level Pressure  
Sea Level Pressure 29.72 in    
Wind  
Wind Speed 6 mph (SSW)    
Max Wind Speed 12 mph    
Max Gust Speed 20 mph    
Visibility 9 miles    
Events Rain    
Averages and records for this station are not official NWS values.
T = Trace of Precipitation, MM = Missing Value Source: NWS Daily Summary

Daily Weather History Graph

Daily Weather History Graph

Search for Another Location

Airport or City:

Astronomy

Sep. 26, 2019 Rise Set
Actual Time 6:44 AM EDT 6:42 PM EDT
Civil Twilight 6:14 AM EDT 7:11 PM EDT
Nautical Twilight 5:40 AM EDT 7:46 PM EDT
Astronomical Twilight 5:05 AM EDT 8:20 PM EDT
Moon 3:36 AM EDT (9/26) 6:03 PM EDT (9/26)
Length of Visible Light 12h 57m
Length of Day
11h 58m
Waning Crescent, 7% of the Moon is Illuminated
Sep 26
Waning Crescent
Sep 28
New
Oct 5
First Quarter
Oct 13
Full
Oct 21
Last Quarter

Hourly Weather History & Observations

Time (EDT) Temp. Dew Point Humidity Pressure Visibility Wind Dir Wind Speed Gust Speed Precip Events Conditions
12:15 AM 66.6 °F 54.7 °F 66% 29.73 in 10.0 mi South 5.8 mph - N/A   Overcast
12:36 AM 66.7 °F 54.9 °F 66% 29.73 in 10.0 mi South 8.1 mph - N/A   Overcast
12:56 AM 67.1 °F 55.0 °F 65% 29.73 in 10.0 mi South 9.2 mph - N/A   Overcast
1:16 AM 66.9 °F 55.0 °F 66% 29.72 in 10.0 mi South 6.9 mph - N/A   Overcast
1:35 AM 67.1 °F 55.0 °F 65% 29.71 in 10.0 mi South 8.1 mph - N/A   Overcast
1:55 AM 67.5 °F 55.0 °F 64% 29.71 in 10.0 mi South 5.8 mph - N/A   Overcast
2:15 AM 67.6 °F 54.5 °F 63% 29.71 in 10.0 mi South 11.5 mph 18.4 mph N/A   Overcast
2:35 AM 68.0 °F 54.0 °F 61% 29.70 in 10.0 mi South 10.4 mph 18.4 mph N/A   Overcast
2:55 AM 68.0 °F 53.8 °F 60% 29.71 in 10.0 mi South 9.2 mph - N/A   Overcast
3:16 AM 68.0 °F 53.8 °F 60% 29.70 in 10.0 mi South 6.9 mph - N/A   Overcast
3:35 AM 67.6 °F 54.0 °F 61% 29.69 in 10.0 mi South 9.2 mph - N/A   Overcast
3:56 AM 67.8 °F 54.0 °F 61% 29.69 in 10.0 mi South 10.4 mph - N/A   Overcast
4:16 AM 68.0 °F 54.0 °F 61% 29.69 in 10.0 mi South 5.8 mph - N/A   Overcast
4:35 AM 67.8 °F 53.8 °F 61% 29.69 in 10.0 mi South 9.2 mph 16.1 mph N/A   Overcast
4:56 AM 67.5 °F 54.0 °F 62% 29.68 in 10.0 mi South 9.2 mph - N/A   Overcast
5:15 AM 67.1 °F 54.3 °F 63% 29.69 in 10.0 mi South 6.9 mph - N/A   Mostly Cloudy
5:36 AM 66.6 °F 54.5 °F 65% 29.69 in 10.0 mi South 8.1 mph - N/A   Scattered Clouds
5:55 AM 66.7 °F 54.7 °F 65% 29.69 in 10.0 mi South 6.9 mph - N/A   Mostly Cloudy
6:16 AM 66.6 °F 54.9 °F 66% 29.68 in 10.0 mi South 6.9 mph - N/A   Overcast
6:35 AM 66.6 °F 55.0 °F 66% 29.68 in 10.0 mi South 10.4 mph 19.6 mph N/A   Mostly Cloudy
6:56 AM 66.4 °F 55.4 °F 68% 29.68 in 10.0 mi SSW 6.9 mph - N/A   Mostly Cloudy
7:15 AM 66.4 °F 55.4 °F 68% 29.68 in 10.0 mi South 5.8 mph - N/A   Mostly Cloudy
7:35 AM 66.2 °F 55.6 °F 69% 29.68 in 10.0 mi South 9.2 mph - N/A   Scattered Clouds
7:56 AM 66.4 °F 55.9 °F 69% 29.67 in 10.0 mi South 6.9 mph - N/A   Scattered Clouds
8:15 AM 66.7 °F 55.9 °F 68% 29.67 in 10.0 mi South 5.8 mph - N/A   Clear
8:35 AM 67.6 °F 56.5 °F 67% 29.68 in 10.0 mi South 6.9 mph - N/A   Scattered Clouds
8:56 AM 68.5 °F 56.7 °F 66% 29.68 in 10.0 mi South 4.6 mph - N/A   Mostly Cloudy
9:16 AM 69.3 °F 57.2 °F 65% 29.68 in 10.0 mi SSW 4.6 mph - N/A   Mostly Cloudy
9:35 AM 68.9 °F 57.0 °F 66% 29.68 in 10.0 mi SSW 4.6 mph - N/A   Mostly Cloudy
9:56 AM 67.8 °F 57.2 °F 69% 29.67 in 10.0 mi SSW 6.9 mph - N/A   Mostly Cloudy
10:15 AM 67.5 °F 57.2 °F 70% 29.66 in 10.0 mi SSW 5.8 mph - N/A   Overcast
10:35 AM 67.6 °F 57.4 °F 70% 29.64 in 10.0 mi SSW 3.5 mph - N/A   Overcast
10:55 AM 66.9 °F 58.3 °F 74% 29.64 in 10.0 mi Calm Calm - N/A   Overcast
11:16 AM 65.5 °F 59.4 °F 81% 29.64 in 10.0 mi Calm Calm - N/A Rain Light Rain
11:35 AM 64.4 °F 59.9 °F 85% 29.65 in 7.0 mi WSW 3.5 mph - N/A Rain Rain
11:56 AM 62.6 °F 60.8 °F 94% 29.67 in 2.5 mi SSW 4.6 mph - N/A Rain Rain
12:16 PM 62.2 °F 60.8 °F 95% 29.69 in 3.0 mi SSW 6.9 mph - N/A Rain Rain
12:35 PM 61.9 °F 60.6 °F 96% 29.73 in 1.0 mi West 10.4 mph - N/A Rain Heavy Rain
12:55 PM 60.3 °F 59.0 °F 96% 29.73 in 7.0 mi Calm Calm - N/A Rain Rain
1:15 PM 60.1 °F 59.0 °F 96% 29.72 in 10.0 mi West 4.6 mph - N/A   Overcast
1:36 PM 60.1 °F 59.0 °F 96% 29.72 in 10.0 mi Calm Calm - N/A   Overcast
1:55 PM 60.4 °F 59.2 °F 96% 29.71 in 5.0 mi Calm Calm - N/A Rain Rain
2:15 PM 60.6 °F 59.4 °F 96% 29.72 in 2.5 mi Calm Calm - N/A Rain Rain
2:36 PM 60.8 °F 59.4 °F 95% 29.71 in 10.0 mi Calm Calm - N/A Rain Light Rain
2:55 PM 60.8 °F 59.4 °F 95% 29.70 in 10.0 mi East 4.6 mph - N/A Rain Rain
3:16 PM 60.4 °F 59.2 °F 96% 29.71 in 5.0 mi Calm Calm - N/A Rain Rain
3:36 PM 60.4 °F 59.2 °F 96% 29.71 in 4.0 mi Calm Calm - N/A Rain Rain
3:55 PM 60.4 °F 59.2 °F 96% 29.70 in 5.0 mi Calm Calm - N/A Rain Rain
4:16 PM 60.4 °F 59.2 °F 96% 29.71 in 7.0 mi Calm Calm - N/A Rain Light Rain
4:35 PM 60.8 °F 59.4 °F 95% 29.69 in 10.0 mi Calm Calm - N/A   Overcast
4:55 PM 60.8 °F 59.5 °F 96% 29.71 in 10.0 mi West 3.5 mph - N/A   Overcast
5:16 PM 62.2 °F 61.2 °F 96% 29.71 in 10.0 mi SSW 3.5 mph - N/A   Scattered Clouds
5:36 PM 62.8 °F 61.5 °F 96% 29.71 in 10.0 mi SSW 3.5 mph - N/A   Clear
5:56 PM 62.4 °F 59.2 °F 89% 29.72 in 10.0 mi South 3.5 mph - N/A   Clear
6:15 PM 61.7 °F 58.5 °F 89% 29.72 in 10.0 mi South 3.5 mph - N/A   Clear
6:36 PM 61.2 °F 59.2 °F 93% 29.73 in 10.0 mi South 4.6 mph - N/A   Clear
6:55 PM 60.4 °F 59.2 °F 96% 29.74 in 10.0 mi SSW 3.5 mph - N/A   Clear
7:15 PM 60.1 °F 59.0 °F 96% 29.75 in 10.0 mi SSW 3.5 mph - N/A   Clear
7:36 PM 60.1 °F 59.0 °F 96% 29.76 in 10.0 mi Calm Calm - N/A   Scattered Clouds
7:55 PM 60.8 °F 59.4 °F 95% 29.77 in 10.0 mi Calm Calm - N/A   Mostly Cloudy
8:16 PM 60.6 °F 59.4 °F 96% 29.77 in 10.0 mi Calm Calm - N/A   Scattered Clouds
8:35 PM 60.3 °F 59.0 °F 96% 29.78 in 10.0 mi South 3.5 mph - N/A   Mostly Cloudy
8:56 PM 60.4 °F 57.9 °F 91% 29.79 in 10.0 mi West 5.8 mph - N/A   Scattered Clouds
9:15 PM 59.9 °F 54.7 °F 83% 29.81 in 10.0 mi West 4.6 mph - N/A Rain Light Rain
9:35 PM 59.0 °F 53.2 °F 81% 29.82 in 10.0 mi West 4.6 mph - N/A   Overcast
9:55 PM 58.8 °F 52.3 °F 79% 29.83 in 10.0 mi West 4.6 mph - N/A   Overcast
10:15 PM 57.4 °F 52.0 °F 82% 29.84 in 10.0 mi West 3.5 mph - N/A   Scattered Clouds
10:36 PM 57.4 °F 51.3 °F 80% 29.85 in 10.0 mi West 3.5 mph - N/A   Scattered Clouds
10:56 PM 56.8 °F 50.9 °F 80% 29.87 in 10.0 mi WSW 4.6 mph - N/A   Scattered Clouds
11:15 PM 56.3 °F 50.7 °F 82% 29.87 in 10.0 mi Calm Calm - N/A   Clear
11:35 PM 55.6 °F 50.5 °F 83% 29.87 in 10.0 mi Calm Calm - N/A   Clear
11:55 PM 55.2 °F 50.7 °F 85% 29.89 in 10.0 mi Calm Calm - N/A   Clear